EW5144 Weather Reports


Display with metric or nautical units.
time (UTC)temp
F
wind
direction
speed
MPH
gust
MPH
rain 1hr
in
rain 24hr
in
rain mn
in
humidity
%
barometer
mb
20230203071516 30 143 0.0 2.0 0.00 0.00 0.00 62 1004.4
20230203070029 30 131 0.0 1.0 0.00 0.00 0.00 62 1004.6
20230203064514 30 121 0.0 1.0 0.00 0.00 0.00 62 1004.6
20230203063011 31 130 0.0 4.0 0.00 0.00 0.00 62 1004.6
20230203061509 31 129 0.0 2.0 0.00 0.00 0.00 62 1004.7
20230203060006 31 34 0.0 4.0 0.00 0.00 0.00 63 1005.0
20230203054503 31 147 0.0 3.0 0.00 0.00 0.00 64 1005.1
20230203053100 31 136 0.0 3.0 0.00 0.00 0.00 65 1005.4
20230203051605 30 124 0.0 1.0 0.00 0.00 0.00 66 1005.9
20230203050054 30 136 0.0 2.0 0.00 0.00 0.00 66 1006.2
20230203044551 31 120 0.0 1.0 0.00 0.00 0.00 66 1006.4
20230203043054 31 119 0.0 1.0 0.00 0.00 0.00 67 1006.5
20230203041558 31 117 0.0 2.0 0.00 0.00 0.00 67 1006.8
20230203040046 31 125 0.0 2.0 0.00 0.00 0.00 67 1007.0
20230203034544 31 137 0.0 3.0 0.00 0.00 0.00 68 1007.3
20230203033046 31 141 0.0 2.0 0.00 0.00 0.00 68 1007.6
20230203031537 31 105 0.0 4.0 0.00 0.00 0.00 69 1008.2
20230203030033 31 120 0.0 2.0 0.00 0.00 0.00 69 1008.7
20230203024534 31 12 0.0 4.0 0.00 0.00 0.00 69 1009.0
20230203023029 31 131 0.0 3.0 0.00 0.00 0.00 69 1009.2
20230203021538 31 146 0.0 3.0 0.00 0.00 0.00 69 1009.3
20230203020027 31 116 0.0 3.0 0.00 0.00 0.00 68 1009.5
20230203014524 31 122 0.0 2.0 0.00 0.00 0.00 67 1009.8
20230203013027 32 150 0.0 3.0 0.00 0.00 0.00 67 1010.0
20230203011525 32 134 0.0 4.0 0.00 0.00 0.00 66 1009.8
20230203010022 32 110 0.0 5.0 0.00 0.00 0.00 65 1010.2
20230203004516 31 66 0.0 1.0 0.00 0.00 0.00 63 1010.7
20230203003014 32 28 0.0 4.0 0.00 0.00 0.00 61 1011.0
20230203001513 32 69 0.0 2.0 0.00 0.00 0.00 59 1011.5
20230203000010 32 138 0.0 3.0 0.00 0.00 0.00 56 1011.5
20230202234507 32 82 0.0 4.0 0.00 0.00 0.00 55 1012.0
20230202233005 32 221 0.0 2.0 0.00 0.00 0.00 53 1012.4
20230202231503 33 101 0.0 4.0 0.00 0.00 0.00 51 1012.5
20230202230001 33 37 0.0 4.0 0.00 0.00 0.00 50 1013.0
20230202224604 33 65 0.0 3.0 0.00 0.00 0.00 50 1013.2
20230202223100 34 128 0.0 2.0 0.00 0.00 0.00 50 1013.5
20230202221604 34 122 0.0 6.0 0.00 0.00 0.00 49 1013.4
20230202220057 35 128 0.0 5.0 0.00 0.00 0.00 48 1013.2
20230202214557 36 114 0.0 4.0 0.00 0.00 0.00 46 1013.3
20230202213059 36 352 0.0 6.0 0.00 0.00 0.00 44 1013.4
20230202211553 36 113 0.0 4.0 0.00 0.00 0.00 43 1013.7
20230202210052 37 143 0.0 5.0 0.00 0.00 0.00 42 1013.9
20230202204548 37 179 0.0 6.0 0.00 0.00 0.00 41 1014.2
20230202203046 38 85 0.0 3.0 0.00 0.00 0.00 39 1014.6
20230202201545 38 54 0.0 5.0 0.00 0.00 0.00 39 1014.9
20230202200043 38 36 1.0 6.0 0.00 0.00 0.00 38 1015.0
20230202194553 38 89 0.0 6.0 0.00 0.00 0.00 38 1015.4
20230202193042 38 142 0.0 2.0 0.00 0.00 0.00 38 1015.5
20230202191541 38 121 0.0 5.0 0.00 0.00 0.00 38 1015.8
20230202190034 38 146 0.0 3.0 0.00 0.00 0.00 38 1016.3
20230202184549 38 192 0.0 3.0 0.00 0.00 0.00 38 1016.6
20230202183029 38 127 0.0 3.0 0.00 0.00 0.00 38 1017.0
20230202181532 37 145 0.0 4.0 0.00 0.00 0.00 39 1017.5
20230202180023 37 136 0.0 2.0 0.00 0.00 0.00 42 1017.7
20230202174518 36 155 0.0 7.0 0.00 0.00 0.00 43 1018.5
20230202173023 36 152 0.0 3.0 0.00 0.00 0.00 45 1019.1
20230202171512 35 147 0.0 2.0 0.00 0.00 0.00 44 1019.6
20230202170007 36 51 0.0 2.0 0.00 0.00 0.00 44 1020.4
20230202164509 36 152 0.0 6.0 0.00 0.00 0.00 44 1020.7
20230202163010 36 117 0.0 3.0 0.00 0.00 0.00 44 1021.0
20230202161502 36 120 0.0 2.0 0.00 0.00 0.00 46 1021.2
20230202160115 35 139 0.0 5.0 0.00 0.00 0.00 48 1021.5
20230202154553 34 127 0.0 5.0 0.00 0.00 0.00 50 1022.1
20230202153050 33 116 0.0 2.0 0.00 0.00 0.00 52 1022.5
20230202151546 32 119 0.0 3.0 0.00 0.00 0.00 54 1022.4
20230202150044 31 117 0.0 3.0 0.00 0.00 0.00 57 1022.6
20230202144547 30 137 0.0 4.0 0.00 0.00 0.00 59 1022.8
20230202143041 29 105 0.0 1.0 0.00 0.00 0.00 61 1022.9
20230202141534 27 98 0.0 2.0 0.00 0.00 0.00 64 1022.9
20230202140028 26 134 0.0 1.0 0.00 0.00 0.00 66 1023.1
20230202134524 25 134 0.0 1.0 0.00 0.00 0.00 68 1023.5
20230202133025 23 134 0.0 1.0 0.00 0.00 0.00 71 1023.5
20230202131521 22 134 0.0 1.0 0.00 0.00 0.00 73 1023.5
20230202130020 22 142 0.0 1.0 0.00 0.00 0.00 73 1023.7
20230202124526 21 142 0.0 1.0 0.00 0.00 0.00 73 1023.8
20230202123017 21 131 0.0 1.0 0.00 0.00 0.00 73 1024.0
20230202121515 21 129 0.0 0.0 0.00 0.00 0.00 72 1024.0
20230202120013 21 129 0.0 0.0 0.00 0.00 0.00 72 1024.2
20230202114516 21 129 0.0 1.0 0.00 0.00 0.00 71 1024.2
20230202113011 21 129 0.0 1.0 0.00 0.00 0.00 71 1024.3
20230202111513 21 128 0.0 1.0 0.00 0.00 0.00 70 1024.4
20230202110009 22 128 0.0 0.0 0.00 0.00 0.00 69 1024.3
20230202104507 22 128 0.0 1.0 0.00 0.00 0.00 68 1024.3
20230202103006 22 133 0.0 1.0 0.00 0.00 0.00 68 1024.3
20230202101506 23 129 0.0 1.0 0.00 0.00 0.00 68 1024.4
20230202100004 23 125 0.0 1.0 0.00 0.00 0.00 67 1024.2
20230202094503 23 129 0.0 1.0 0.00 0.00 0.00 66 1024.3
20230202093002 23 117 0.0 0.0 0.00 0.00 0.00 65 1024.2
20230202091504 23 131 0.0 1.0 0.00 0.00 0.00 66 1024.2
20230202090001 23 126 0.0 0.0 0.00 0.00 0.00 65 1024.2
20230202084500 23 126 0.0 0.0 0.00 0.00 0.00 65 1024.2
20230202083106 23 137 0.0 1.0 0.00 0.00 0.00 64 1024.2
20230202081559 23 137 0.0 1.0 0.00 0.00 0.00 64 1024.6
20230202080100 23 124 0.0 1.0 0.00 0.00 0.00 63 1024.7
20230202074556 23 120 0.0 0.0 0.00 0.00 0.00 61 1024.6
20230202073054 24 120 0.0 1.0 0.00 0.00 0.00 60 1024.5